Year,Month,Day,Hour,Minute,Value (Times are PST for temperature in C)
2015,10,13,00,00,8.90
2015,10,13,00,01,9.00
2015,10,13,00,02,9.00
2015,10,13,00,03,9.00
2015,10,13,00,04,9.00
2015,10,13,00,05,9.00
2015,10,13,00,06,9.00
2015,10,13,00,07,8.90
2015,10,13,00,08,8.90
2015,10,13,00,09,8.90
2015,10,13,00,10,8.90
2015,10,13,00,11,8.90
2015,10,13,00,12,8.90
2015,10,13,00,13,8.90
2015,10,13,00,14,8.90
2015,10,13,00,15,8.80
2015,10,13,00,16,8.80
2015,10,13,00,17,8.80
2015,10,13,00,18,8.90
2015,10,13,00,19,8.80
2015,10,13,00,20,8.90
2015,10,13,00,21,8.90
2015,10,13,00,22,8.90
2015,10,13,00,23,8.90
2015,10,13,00,24,8.90
2015,10,13,00,25,8.90
2015,10,13,00,26,8.90
2015,10,13,00,27,8.90
2015,10,13,00,28,8.90
2015,10,13,00,29,8.90
2015,10,13,00,30,8.90
2015,10,13,00,31,8.90
2015,10,13,00,32,8.90
2015,10,13,00,33,8.90
2015,10,13,00,34,8.90
2015,10,13,00,35,8.90
2015,10,13,00,36,8.90
2015,10,13,00,37,8.90
2015,10,13,00,38,8.90
2015,10,13,00,39,9.00
2015,10,13,00,40,9.00
2015,10,13,00,41,9.00
2015,10,13,00,42,9.00
2015,10,13,00,43,9.00
2015,10,13,00,44,9.00
2015,10,13,00,45,9.00
2015,10,13,00,46,9.00
2015,10,13,00,47,9.00
2015,10,13,00,48,9.00
2015,10,13,00,49,9.00
2015,10,13,00,50,9.00
2015,10,13,00,51,9.10
2015,10,13,00,52,9.10
2015,10,13,00,53,9.10
2015,10,13,00,54,9.10
2015,10,13,00,55,9.10
2015,10,13,00,56,9.10
2015,10,13,00,57,9.10
2015,10,13,00,58,9.00
2015,10,13,00,59,9.00
2015,10,13,01,00,9.00
2015,10,13,01,01,9.00
2015,10,13,01,02,9.00
2015,10,13,01,03,9.00
2015,10,13,01,04,9.00
2015,10,13,01,05,9.00
2015,10,13,01,06,9.00
2015,10,13,01,07,9.00
2015,10,13,01,08,9.00
2015,10,13,01,09,9.00
2015,10,13,01,10,9.00
2015,10,13,01,11,9.00
2015,10,13,01,12,8.90
2015,10,13,01,13,8.90
2015,10,13,01,14,8.90
2015,10,13,01,15,9.00
2015,10,13,01,16,9.00
2015,10,13,01,17,9.00
2015,10,13,01,18,9.00
2015,10,13,01,19,9.00
2015,10,13,01,20,9.10
2015,10,13,01,21,9.10
2015,10,13,01,22,9.10
2015,10,13,01,23,9.10
2015,10,13,01,24,9.10
2015,10,13,01,25,9.10
2015,10,13,01,26,9.10
2015,10,13,01,27,9.10
2015,10,13,01,28,9.10
2015,10,13,01,29,9.10
2015,10,13,01,30,9.10
2015,10,13,01,31,9.10
2015,10,13,01,32,9.10
2015,10,13,01,33,9.10
2015,10,13,01,34,9.10
2015,10,13,01,35,9.10
2015,10,13,01,36,9.10
2015,10,13,01,37,9.10
2015,10,13,01,38,9.10
2015,10,13,01,39,9.10
2015,10,13,01,40,9.10
2015,10,13,01,41,9.10
2015,10,13,01,42,9.10
2015,10,13,01,43,9.10
2015,10,13,01,44,9.10
2015,10,13,01,45,9.10
2015,10,13,01,46,9.10
2015,10,13,01,47,9.10
2015,10,13,01,48,9.10
2015,10,13,01,49,9.10
2015,10,13,01,50,9.10
2015,10,13,01,51,9.10
2015,10,13,01,52,9.00
2015,10,13,01,53,9.00
2015,10,13,01,54,9.00
2015,10,13,01,55,9.00
2015,10,13,01,56,9.00
2015,10,13,01,57,9.00
2015,10,13,01,58,9.00
2015,10,13,01,59,9.00
2015,10,13,02,00,9.00
2015,10,13,02,01,9.00
2015,10,13,02,02,9.00
2015,10,13,02,03,9.00
2015,10,13,02,04,9.00
2015,10,13,02,05,9.00
2015,10,13,02,06,9.00
2015,10,13,02,07,9.00
2015,10,13,02,08,9.00
2015,10,13,02,09,9.00
2015,10,13,02,10,9.00
2015,10,13,02,11,9.00
2015,10,13,02,12,9.00
2015,10,13,02,13,9.00
2015,10,13,02,14,8.90
2015,10,13,02,15,8.90
2015,10,13,02,16,9.00
2015,10,13,02,17,8.90
2015,10,13,02,18,8.90
2015,10,13,02,19,8.90
2015,10,13,02,20,8.90
2015,10,13,02,21,8.90
2015,10,13,02,22,8.90
2015,10,13,02,23,8.90
2015,10,13,02,24,8.90
2015,10,13,02,25,8.90
2015,10,13,02,26,8.90
2015,10,13,02,27,8.90
2015,10,13,02,28,8.90
2015,10,13,02,29,8.90
2015,10,13,02,30,8.90
2015,10,13,02,31,8.90
2015,10,13,02,32,8.90
2015,10,13,02,33,8.80
2015,10,13,02,34,8.80
2015,10,13,02,35,8.80
2015,10,13,02,36,8.80
2015,10,13,02,37,8.80
2015,10,13,02,38,8.80
2015,10,13,02,39,8.80
2015,10,13,02,40,8.80
2015,10,13,02,41,8.70
2015,10,13,02,42,8.70
2015,10,13,02,43,8.70
2015,10,13,02,44,8.70
2015,10,13,02,45,8.70
2015,10,13,02,46,8.70
2015,10,13,02,47,8.60
2015,10,13,02,48,8.60
2015,10,13,02,49,8.60
2015,10,13,02,50,8.60
2015,10,13,02,51,8.60
2015,10,13,02,52,8.60
2015,10,13,02,53,8.50
2015,10,13,02,54,8.50
2015,10,13,02,55,8.50
2015,10,13,02,56,8.50
2015,10,13,02,57,8.50
2015,10,13,02,58,8.50
2015,10,13,02,59,8.50
2015,10,13,03,00,8.50
2015,10,13,03,01,8.40
2015,10,13,03,02,8.40
2015,10,13,03,06,8.30
2015,10,13,03,07,8.20
2015,10,13,03,08,8.20
2015,10,13,03,09,8.20
2015,10,13,03,10,8.20
2015,10,13,03,11,8.20
2015,10,13,03,12,8.20
2015,10,13,03,13,8.20
2015,10,13,03,14,8.20
2015,10,13,03,15,8.20
2015,10,13,03,16,8.20
2015,10,13,03,17,8.20
2015,10,13,03,18,8.20
2015,10,13,03,19,8.20
2015,10,13,03,20,8.20
2015,10,13,03,21,8.20
2015,10,13,03,22,8.20
2015,10,13,03,23,8.20
2015,10,13,03,24,8.20
2015,10,13,03,25,8.20
2015,10,13,03,26,8.20
2015,10,13,03,27,8.30
2015,10,13,03,28,8.30
2015,10,13,03,29,8.20
2015,10,13,03,30,8.20
2015,10,13,03,31,8.20
2015,10,13,03,32,8.10
2015,10,13,03,33,8.10
2015,10,13,03,34,8.10
2015,10,13,03,35,8.10
2015,10,13,03,36,8.10
2015,10,13,03,37,8.10
2015,10,13,03,38,8.10
2015,10,13,03,39,8.10
2015,10,13,03,40,8.10
2015,10,13,03,41,8.10
2015,10,13,03,42,8.10
2015,10,13,03,43,8.10
2015,10,13,03,44,8.10
2015,10,13,03,45,8.10
2015,10,13,03,46,8.10
2015,10,13,03,47,8.10
2015,10,13,03,48,8.10
2015,10,13,03,49,8.20
2015,10,13,03,50,8.10
2015,10,13,03,51,8.20
2015,10,13,03,52,8.20
2015,10,13,03,53,8.20
2015,10,13,03,54,8.20
2015,10,13,03,55,8.10
2015,10,13,03,56,8.10
2015,10,13,03,57,8.10
2015,10,13,03,58,8.10
2015,10,13,03,59,8.10
2015,10,13,04,00,8.10
2015,10,13,04,01,8.10
2015,10,13,04,02,8.10
2015,10,13,04,03,8.10
2015,10,13,04,04,8.10
2015,10,13,04,05,8.10
2015,10,13,04,06,8.10
2015,10,13,04,07,8.10
2015,10,13,04,08,8.10
2015,10,13,04,09,8.10
2015,10,13,04,10,8.10
2015,10,13,04,11,8.20
2015,10,13,04,12,8.20
2015,10,13,04,13,8.20
2015,10,13,04,14,8.20
2015,10,13,04,15,8.20
2015,10,13,04,16,8.20
2015,10,13,04,17,8.20
2015,10,13,04,18,8.20
2015,10,13,04,19,8.20
2015,10,13,04,20,8.20
2015,10,13,04,21,8.20
2015,10,13,04,22,8.20
2015,10,13,04,23,8.30
2015,10,13,04,24,8.30
2015,10,13,04,25,8.30
2015,10,13,04,26,8.30
2015,10,13,04,27,8.30
2015,10,13,04,28,8.30
2015,10,13,04,29,8.40
2015,10,13,04,30,8.40
2015,10,13,04,31,8.40
2015,10,13,04,32,8.40
2015,10,13,04,33,8.40
2015,10,13,04,34,8.50
2015,10,13,04,35,8.50
2015,10,13,04,36,8.50
2015,10,13,04,37,8.50
2015,10,13,04,38,8.50
2015,10,13,04,39,8.60
2015,10,13,04,40,8.60
2015,10,13,04,41,8.60
2015,10,13,04,42,8.60
2015,10,13,04,43,8.60
2015,10,13,04,44,8.60
2015,10,13,04,45,8.60
2015,10,13,04,46,8.60
2015,10,13,04,47,8.60
2015,10,13,04,48,8.70
2015,10,13,04,49,8.70
2015,10,13,04,50,8.70
2015,10,13,04,51,8.70
2015,10,13,04,52,8.70
2015,10,13,04,53,8.70
2015,10,13,04,54,8.70
2015,10,13,04,55,8.70
2015,10,13,04,56,8.70
2015,10,13,04,57,8.70
2015,10,13,04,58,8.70
2015,10,13,04,59,8.70
2015,10,13,05,00,8.70
2015,10,13,05,01,8.70
2015,10,13,05,02,8.70
2015,10,13,05,03,8.80
2015,10,13,05,04,8.80
2015,10,13,05,05,8.80
2015,10,13,05,06,8.80
2015,10,13,05,07,8.80
2015,10,13,05,08,8.80
2015,10,13,05,09,8.80
2015,10,13,05,10,8.80
2015,10,13,05,11,8.80
2015,10,13,05,12,8.90
2015,10,13,05,13,8.90
2015,10,13,05,14,8.90
2015,10,13,05,15,8.90
2015,10,13,05,16,8.90
2015,10,13,05,17,8.90
2015,10,13,05,18,8.90
2015,10,13,05,19,8.90
2015,10,13,05,20,8.90
2015,10,13,05,21,8.90
2015,10,13,05,22,8.90
2015,10,13,05,23,8.90
2015,10,13,05,24,9.00
2015,10,13,05,25,9.00
2015,10,13,05,26,9.00
2015,10,13,05,27,9.00
2015,10,13,05,28,9.00
2015,10,13,05,29,9.10
2015,10,13,05,30,9.10
2015,10,13,05,31,9.10
2015,10,13,05,32,9.10
2015,10,13,05,33,9.10
2015,10,13,05,34,9.10
2015,10,13,05,35,9.10
2015,10,13,05,36,9.10
2015,10,13,05,37,9.10
2015,10,13,05,38,9.20
2015,10,13,05,39,9.20
2015,10,13,05,40,9.20
2015,10,13,05,41,9.20
2015,10,13,05,42,9.20
2015,10,13,05,43,9.20
2015,10,13,05,44,9.20
2015,10,13,05,45,9.20
2015,10,13,05,46,9.20
2015,10,13,05,47,9.20
2015,10,13,05,48,9.20
2015,10,13,05,49,9.20
2015,10,13,05,50,9.20
2015,10,13,05,51,9.20
2015,10,13,05,52,9.20
2015,10,13,05,53,9.20
2015,10,13,05,54,9.20
2015,10,13,05,55,9.20
2015,10,13,05,56,9.20
2015,10,13,05,57,9.20
2015,10,13,05,58,9.20
2015,10,13,05,59,9.20
2015,10,13,06,00,9.20
2015,10,13,06,01,9.20
2015,10,13,06,02,9.20
2015,10,13,06,03,9.20
2015,10,13,06,04,9.20
2015,10,13,06,05,9.20
2015,10,13,06,06,9.20
2015,10,13,06,07,9.20
2015,10,13,06,08,9.20
2015,10,13,06,09,9.20
2015,10,13,06,10,9.20
2015,10,13,06,11,9.20
2015,10,13,06,12,9.20
2015,10,13,06,13,9.20
2015,10,13,06,14,9.20
2015,10,13,06,15,9.20
2015,10,13,06,16,9.20
2015,10,13,06,17,9.20
2015,10,13,06,18,9.20
2015,10,13,06,19,9.20
2015,10,13,06,20,9.20
2015,10,13,06,21,9.30
2015,10,13,06,22,9.30
2015,10,13,06,23,9.30
2015,10,13,06,24,9.30
2015,10,13,06,25,9.30
2015,10,13,06,26,9.30
2015,10,13,06,27,9.30
2015,10,13,06,28,9.30
2015,10,13,06,29,9.30
2015,10,13,06,30,9.30
2015,10,13,06,31,9.30
2015,10,13,06,32,9.30
2015,10,13,06,33,9.30
2015,10,13,06,34,9.30
2015,10,13,06,35,9.30
2015,10,13,06,36,9.30
2015,10,13,06,37,9.30
2015,10,13,06,38,9.30
2015,10,13,06,39,9.30
2015,10,13,06,40,9.30
2015,10,13,06,41,9.30
2015,10,13,06,42,9.30
2015,10,13,06,43,9.30
2015,10,13,06,44,9.30
2015,10,13,06,45,9.30
2015,10,13,06,46,9.30
2015,10,13,06,47,9.30
2015,10,13,06,48,9.30
2015,10,13,06,49,9.30
2015,10,13,06,50,9.30
2015,10,13,06,51,9.30
2015,10,13,06,52,9.30
2015,10,13,06,53,9.30
2015,10,13,06,54,9.30
2015,10,13,06,55,9.30
2015,10,13,06,56,9.30
2015,10,13,06,57,9.30
2015,10,13,06,58,9.30
2015,10,13,06,59,9.30
2015,10,13,07,00,9.40
2015,10,13,07,01,9.40
2015,10,13,07,02,9.40
2015,10,13,07,03,9.40
2015,10,13,07,04,9.40
2015,10,13,07,05,9.40
2015,10,13,07,06,9.40
2015,10,13,07,07,9.40
2015,10,13,07,08,9.40
2015,10,13,07,09,9.40
2015,10,13,07,10,9.40
2015,10,13,07,11,9.40
2015,10,13,07,12,9.40
2015,10,13,07,13,9.40
2015,10,13,07,14,9.40
2015,10,13,07,15,9.40
2015,10,13,07,16,9.30
2015,10,13,07,17,9.30
2015,10,13,07,18,9.30
2015,10,13,07,19,9.30
2015,10,13,07,20,9.30
2015,10,13,07,21,9.30
2015,10,13,07,22,9.30
2015,10,13,07,23,9.30
2015,10,13,07,24,9.30
2015,10,13,07,25,9.30
2015,10,13,07,26,9.30
2015,10,13,07,27,9.30
2015,10,13,07,28,9.30
2015,10,13,07,29,9.30
2015,10,13,07,30,9.30
2015,10,13,07,31,9.30
2015,10,13,07,32,9.30
2015,10,13,07,33,9.30
2015,10,13,07,34,9.30
2015,10,13,07,35,9.30
2015,10,13,07,36,9.30
2015,10,13,07,37,9.30
2015,10,13,07,38,9.30
2015,10,13,07,39,9.30
2015,10,13,07,40,9.30
2015,10,13,07,41,9.30
2015,10,13,07,42,9.30
2015,10,13,07,43,9.30
2015,10,13,07,44,9.30
2015,10,13,07,45,9.30
2015,10,13,07,46,9.30
2015,10,13,07,47,9.30
2015,10,13,07,48,9.30
2015,10,13,07,49,9.30
2015,10,13,07,50,9.30
2015,10,13,07,51,9.40
2015,10,13,07,52,9.40
2015,10,13,07,53,9.40
2015,10,13,07,54,9.40
2015,10,13,07,55,9.40
2015,10,13,07,56,9.40
2015,10,13,07,57,9.40
2015,10,13,07,58,9.40
2015,10,13,07,59,9.40
2015,10,13,08,00,9.40
2015,10,13,08,01,9.40
2015,10,13,08,02,9.40
2015,10,13,08,03,9.50
2015,10,13,08,04,9.50
2015,10,13,08,05,9.50
2015,10,13,08,06,9.50
2015,10,13,08,07,9.50
2015,10,13,08,08,9.50
2015,10,13,08,09,9.50
2015,10,13,08,10,9.50
2015,10,13,08,11,9.50
2015,10,13,08,12,9.50
2015,10,13,08,13,9.60
2015,10,13,08,14,9.60
2015,10,13,08,15,9.60
2015,10,13,08,16,9.60
2015,10,13,08,17,9.60
2015,10,13,08,18,9.60
2015,10,13,08,19,9.60
2015,10,13,08,20,9.60
2015,10,13,08,21,9.60
2015,10,13,08,22,9.60
2015,10,13,08,23,9.60
2015,10,13,08,24,9.60
2015,10,13,08,25,9.60
2015,10,13,08,26,9.60
2015,10,13,08,27,9.60
2015,10,13,08,28,9.60
2015,10,13,08,29,9.60
2015,10,13,08,30,9.60
2015,10,13,08,31,9.60
2015,10,13,08,32,9.60
2015,10,13,08,33,9.60
2015,10,13,08,34,9.60
2015,10,13,08,35,9.60
2015,10,13,08,36,9.60
2015,10,13,08,37,9.60
2015,10,13,08,38,9.60
2015,10,13,08,39,9.70
2015,10,13,08,40,9.70
2015,10,13,08,41,9.70
2015,10,13,08,42,9.70
2015,10,13,08,43,9.70
2015,10,13,08,44,9.70
2015,10,13,08,45,9.70
2015,10,13,08,46,9.70
2015,10,13,08,47,9.70
2015,10,13,08,48,9.70
2015,10,13,08,49,9.70
2015,10,13,08,50,9.70
2015,10,13,08,51,9.70
2015,10,13,08,52,9.70
2015,10,13,08,53,9.70
2015,10,13,08,54,9.70
2015,10,13,08,55,9.70
2015,10,13,08,56,9.70
2015,10,13,08,57,9.70
2015,10,13,08,58,9.70
2015,10,13,08,59,9.70
2015,10,13,09,00,9.70
2015,10,13,09,01,9.80
2015,10,13,09,02,9.80
2015,10,13,09,03,9.80
2015,10,13,09,04,9.80
2015,10,13,09,05,9.80
2015,10,13,09,06,9.80
2015,10,13,09,07,9.80
2015,10,13,09,08,9.80
2015,10,13,09,09,9.80
2015,10,13,09,10,9.80
2015,10,13,09,11,9.90
2015,10,13,09,12,9.90
2015,10,13,09,13,9.90
2015,10,13,09,14,9.90
2015,10,13,09,15,9.90
2015,10,13,09,16,9.90
2015,10,13,09,17,9.90
2015,10,13,09,18,9.90
2015,10,13,09,19,9.90
2015,10,13,09,20,9.90
2015,10,13,09,21,10.00
2015,10,13,09,22,10.00
2015,10,13,09,23,10.00
2015,10,13,09,24,10.00
2015,10,13,09,25,10.00
2015,10,13,09,26,10.00
2015,10,13,09,27,10.10
2015,10,13,09,28,10.10
2015,10,13,09,29,10.10
2015,10,13,09,30,10.10
2015,10,13,09,31,10.10
2015,10,13,09,32,10.10
2015,10,13,09,33,10.10
2015,10,13,09,34,10.10
2015,10,13,09,35,10.10
2015,10,13,09,36,10.20
2015,10,13,09,37,10.20
2015,10,13,09,38,10.20
2015,10,13,09,39,10.20
2015,10,13,09,40,10.20
2015,10,13,09,41,10.20
2015,10,13,09,42,10.20
2015,10,13,09,43,10.20
2015,10,13,09,44,10.20
2015,10,13,09,45,10.20
2015,10,13,09,46,10.20
2015,10,13,09,47,10.20
2015,10,13,09,48,10.20
2015,10,13,09,49,10.30
2015,10,13,09,50,10.30
2015,10,13,09,51,10.30
2015,10,13,09,52,10.30
2015,10,13,09,53,10.30
2015,10,13,09,54,10.30
2015,10,13,09,55,10.30
2015,10,13,09,56,10.30
2015,10,13,09,57,10.30
2015,10,13,09,58,10.30
2015,10,13,09,59,10.30
2015,10,13,10,00,10.30
2015,10,13,10,01,10.30
2015,10,13,10,02,10.30
2015,10,13,10,03,10.30
2015,10,13,10,04,10.30
2015,10,13,10,05,10.30
2015,10,13,10,06,10.30
2015,10,13,10,07,10.40
2015,10,13,10,08,10.40
2015,10,13,10,09,10.40
2015,10,13,10,10,10.40
2015,10,13,10,11,10.50
2015,10,13,10,12,10.50
2015,10,13,10,13,10.50
2015,10,13,10,14,10.60
2015,10,13,10,15,10.60
2015,10,13,10,16,10.60
2015,10,13,10,17,10.60
2015,10,13,10,18,10.70
2015,10,13,10,19,10.70
2015,10,13,10,20,10.70
2015,10,13,10,21,10.70
2015,10,13,10,22,10.70
2015,10,13,10,23,10.80
2015,10,13,10,24,10.80
2015,10,13,10,25,10.80
2015,10,13,10,26,10.80
2015,10,13,10,27,10.90
2015,10,13,10,28,10.90
2015,10,13,10,29,10.90
2015,10,13,10,30,10.90
2015,10,13,10,31,10.90
2015,10,13,10,32,11.00
2015,10,13,10,33,11.10
2015,10,13,10,34,11.10
2015,10,13,10,35,11.10
2015,10,13,10,36,11.10
2015,10,13,10,37,11.20
2015,10,13,10,38,11.20
2015,10,13,10,39,11.20
2015,10,13,10,40,11.20
2015,10,13,10,41,11.20
2015,10,13,10,42,11.30
2015,10,13,10,43,11.30
2015,10,13,10,44,11.30
2015,10,13,10,45,11.30
2015,10,13,10,46,11.30
2015,10,13,10,47,11.30
2015,10,13,10,48,11.30
2015,10,13,10,49,11.40
2015,10,13,10,50,11.40
2015,10,13,10,51,11.40
2015,10,13,10,52,11.50
2015,10,13,10,53,11.50
2015,10,13,10,54,11.60
2015,10,13,10,55,11.60
2015,10,13,10,56,11.60
2015,10,13,10,57,11.60
2015,10,13,10,58,11.70
2015,10,13,10,59,11.70
2015,10,13,11,00,11.70
2015,10,13,11,01,11.70
2015,10,13,11,02,11.70
2015,10,13,11,03,11.80
2015,10,13,11,04,11.90
2015,10,13,11,05,11.90
2015,10,13,11,06,12.00
2015,10,13,11,07,12.10
2015,10,13,11,08,12.10
2015,10,13,11,09,12.20
2015,10,13,11,10,12.20
2015,10,13,11,11,12.20
2015,10,13,11,12,12.30
2015,10,13,11,13,12.30
2015,10,13,11,14,12.30
2015,10,13,11,15,12.30
2015,10,13,11,16,12.40
2015,10,13,11,17,12.40
2015,10,13,11,18,12.50
2015,10,13,11,19,12.60
2015,10,13,11,20,12.80
2015,10,13,11,21,12.90
2015,10,13,11,22,13.00
2015,10,13,11,23,13.10
2015,10,13,11,24,13.10
2015,10,13,11,25,13.20
2015,10,13,11,26,13.20
2015,10,13,11,27,13.20
2015,10,13,11,28,13.30
2015,10,13,11,29,13.30
2015,10,13,11,30,13.40
2015,10,13,11,31,13.40
2015,10,13,11,32,13.50
2015,10,13,11,33,13.50
2015,10,13,11,34,13.60
2015,10,13,11,35,13.60
2015,10,13,11,36,13.60
2015,10,13,11,37,13.70
2015,10,13,11,38,13.70
2015,10,13,11,39,13.80
2015,10,13,11,40,13.80
2015,10,13,11,41,13.90
2015,10,13,11,42,14.00
2015,10,13,11,43,14.00
2015,10,13,11,44,14.10
2015,10,13,11,45,14.20
2015,10,13,11,46,14.30
2015,10,13,11,47,14.40
2015,10,13,11,48,14.40
2015,10,13,11,49,14.50
2015,10,13,11,50,14.50
2015,10,13,11,51,14.60
2015,10,13,11,52,14.70
2015,10,13,11,53,14.70
2015,10,13,11,54,14.70
2015,10,13,11,55,14.70
2015,10,13,11,56,14.70
2015,10,13,11,57,14.70
2015,10,13,11,58,14.60
2015,10,13,11,59,14.60
2015,10,13,12,00,14.50
2015,10,13,12,01,14.40
2015,10,13,12,02,14.30
2015,10,13,12,03,14.30
2015,10,13,12,04,14.20
2015,10,13,12,05,14.20
2015,10,13,12,06,14.20
2015,10,13,12,07,14.10
2015,10,13,12,08,14.10
2015,10,13,12,09,14.00
2015,10,13,12,10,13.90
2015,10,13,12,11,13.80
2015,10,13,12,12,13.70
2015,10,13,12,13,13.70
2015,10,13,12,14,13.70
2015,10,13,12,15,13.60
2015,10,13,12,16,13.60
2015,10,13,12,17,13.60
2015,10,13,12,18,13.60
2015,10,13,12,19,13.60
2015,10,13,12,20,13.60
2015,10,13,12,21,13.60
2015,10,13,12,22,13.60
2015,10,13,12,23,13.70
2015,10,13,12,24,13.70
2015,10,13,12,25,13.70
2015,10,13,12,26,13.70
2015,10,13,12,27,13.70
2015,10,13,12,28,13.70
2015,10,13,12,29,13.70
2015,10,13,12,30,13.70
2015,10,13,12,31,13.80
2015,10,13,12,32,13.80
2015,10,13,12,33,13.80
2015,10,13,12,34,13.80
2015,10,13,12,35,13.90
2015,10,13,12,36,14.00
2015,10,13,12,37,14.10
2015,10,13,12,38,14.10
2015,10,13,12,39,14.20
2015,10,13,12,40,14.20
2015,10,13,12,41,14.30
2015,10,13,12,42,14.30
2015,10,13,12,43,14.40
2015,10,13,12,44,14.40
2015,10,13,12,45,14.40
2015,10,13,12,46,14.50
2015,10,13,12,47,14.40
2015,10,13,12,48,14.40
2015,10,13,12,49,14.40
2015,10,13,12,50,14.30
2015,10,13,12,51,14.30
2015,10,13,12,52,14.40
2015,10,13,12,53,14.40
2015,10,13,12,54,14.40
2015,10,13,12,55,14.40
2015,10,13,12,56,14.40
2015,10,13,12,57,14.40
2015,10,13,12,58,14.30
2015,10,13,12,59,14.40
2015,10,13,13,00,14.40
2015,10,13,13,01,14.50
2015,10,13,13,02,14.50
2015,10,13,13,03,14.60
2015,10,13,13,04,14.50
2015,10,13,13,05,14.50
2015,10,13,13,06,14.50
2015,10,13,13,07,14.50
2015,10,13,13,08,14.60
2015,10,13,13,09,14.60
2015,10,13,13,10,14.60
2015,10,13,13,11,14.60
2015,10,13,13,12,14.70
2015,10,13,13,13,14.70
2015,10,13,13,14,14.80
2015,10,13,13,15,14.90
2015,10,13,13,16,14.90
2015,10,13,13,17,14.90
2015,10,13,13,18,15.00
2015,10,13,13,19,15.00
2015,10,13,13,20,15.10
2015,10,13,13,21,15.10
2015,10,13,13,22,15.20
2015,10,13,13,23,15.20
2015,10,13,13,24,15.20
2015,10,13,13,25,15.30
2015,10,13,13,26,15.30
2015,10,13,13,27,15.30
2015,10,13,13,28,15.30
2015,10,13,13,29,15.40
2015,10,13,13,30,15.40
2015,10,13,13,31,15.40
2015,10,13,13,32,15.30
2015,10,13,13,33,15.30
2015,10,13,13,34,15.20
2015,10,13,13,35,15.20
2015,10,13,13,36,15.10
2015,10,13,13,37,15.10
2015,10,13,13,38,15.00
2015,10,13,13,39,15.00
2015,10,13,13,40,15.00
2015,10,13,13,41,15.00
2015,10,13,13,42,15.00
2015,10,13,13,43,15.10
2015,10,13,13,44,15.10
2015,10,13,13,45,15.10
2015,10,13,13,46,15.10
2015,10,13,13,47,15.10
2015,10,13,13,48,15.20
2015,10,13,13,49,15.30
2015,10,13,13,50,15.30
2015,10,13,13,51,15.30
2015,10,13,13,52,15.30
2015,10,13,13,53,15.30
2015,10,13,13,54,15.30
2015,10,13,13,55,15.30
2015,10,13,13,56,15.30
2015,10,13,13,57,15.30
2015,10,13,13,58,15.20
2015,10,13,13,59,15.20
2015,10,13,14,00,15.20
2015,10,13,14,01,15.20
2015,10,13,14,02,15.20
2015,10,13,14,03,15.30
2015,10,13,14,04,15.30
2015,10,13,14,05,15.40
2015,10,13,14,06,15.40
2015,10,13,14,07,15.50
2015,10,13,14,08,15.50
2015,10,13,14,09,15.60
2015,10,13,14,10,15.70
2015,10,13,14,11,15.80
2015,10,13,14,12,15.90
2015,10,13,14,13,16.00
2015,10,13,14,14,16.00
2015,10,13,14,15,16.10
2015,10,13,14,16,16.10
2015,10,13,14,17,16.00
2015,10,13,14,18,16.00
2015,10,13,14,19,16.10
2015,10,13,14,20,16.10
2015,10,13,14,21,16.10
2015,10,13,14,22,16.10
2015,10,13,14,23,16.20
2015,10,13,14,24,16.20
2015,10,13,14,25,16.20
2015,10,13,14,26,16.10
2015,10,13,14,27,16.10
2015,10,13,14,28,16.10
2015,10,13,14,29,16.10
2015,10,13,14,30,16.10
2015,10,13,14,31,16.10
2015,10,13,14,32,16.10
2015,10,13,14,33,16.10
2015,10,13,14,34,16.20
2015,10,13,14,35,16.20
2015,10,13,14,36,16.30
2015,10,13,14,37,16.40
2015,10,13,14,38,16.40
2015,10,13,14,39,16.40
2015,10,13,14,40,16.40
2015,10,13,14,41,16.40
2015,10,13,14,42,16.40
2015,10,13,14,43,16.40
2015,10,13,14,44,16.40
2015,10,13,14,45,16.40
2015,10,13,14,46,16.50
2015,10,13,14,47,16.50
2015,10,13,14,48,16.50
2015,10,13,14,49,16.50
2015,10,13,14,50,16.50
2015,10,13,14,51,16.60
2015,10,13,14,52,16.60
2015,10,13,14,53,16.60
2015,10,13,14,54,16.70
2015,10,13,14,55,16.70
2015,10,13,14,56,16.80
2015,10,13,14,57,16.80
2015,10,13,14,58,16.80
2015,10,13,14,59,16.80
2015,10,13,15,00,16.80
2015,10,13,15,01,16.80
2015,10,13,15,02,16.70
2015,10,13,15,03,16.80
2015,10,13,15,04,16.80
2015,10,13,15,05,16.80
2015,10,13,15,06,16.80
2015,10,13,15,07,16.80
2015,10,13,15,08,16.80
2015,10,13,15,09,16.80
2015,10,13,15,10,16.90
2015,10,13,15,11,16.90
2015,10,13,15,12,16.90
2015,10,13,15,13,16.90
2015,10,13,15,14,16.90
2015,10,13,15,15,16.90
2015,10,13,15,16,16.90
2015,10,13,15,17,16.90
2015,10,13,15,18,16.90
2015,10,13,15,19,16.90
2015,10,13,15,20,17.00
2015,10,13,15,21,17.10
2015,10,13,15,22,17.20
2015,10,13,15,23,17.20
2015,10,13,15,24,17.20
2015,10,13,15,25,17.30
2015,10,13,15,26,17.30
2015,10,13,15,27,17.30
2015,10,13,15,28,17.30
2015,10,13,15,29,17.30
2015,10,13,15,30,17.30
2015,10,13,15,31,17.20
2015,10,13,15,32,17.20
2015,10,13,15,33,17.20
2015,10,13,15,34,17.20
2015,10,13,15,35,17.20
2015,10,13,15,36,17.30
2015,10,13,15,37,17.30
2015,10,13,15,38,17.30
2015,10,13,15,39,17.40
2015,10,13,15,40,17.40
2015,10,13,15,41,17.40
2015,10,13,15,42,17.30
2015,10,13,15,43,17.30
2015,10,13,15,44,17.20
2015,10,13,15,45,17.20
2015,10,13,15,46,17.20
2015,10,13,15,47,17.10
2015,10,13,15,48,17.10
2015,10,13,15,49,17.10
2015,10,13,15,50,17.10
2015,10,13,15,51,17.10
2015,10,13,15,52,17.10
2015,10,13,15,53,17.20
2015,10,13,15,54,17.30
2015,10,13,15,55,17.40
2015,10,13,15,56,17.50
2015,10,13,15,57,17.50
2015,10,13,15,58,17.60
2015,10,13,15,59,17.60
2015,10,13,16,00,17.60
2015,10,13,16,01,17.60
2015,10,13,16,02,17.60
2015,10,13,16,03,17.60
2015,10,13,16,04,17.70
2015,10,13,16,05,17.70
2015,10,13,16,06,17.70
2015,10,13,16,07,17.70
2015,10,13,16,08,17.80
2015,10,13,16,09,17.80
2015,10,13,16,10,17.90
2015,10,13,16,11,18.00
2015,10,13,16,12,18.00
2015,10,13,16,13,18.10
2015,10,13,16,14,18.20
2015,10,13,16,15,18.20
2015,10,13,16,16,18.20
2015,10,13,16,17,18.20
2015,10,13,16,18,18.20
2015,10,13,16,19,18.10
2015,10,13,16,20,18.00
2015,10,13,16,21,17.90
2015,10,13,16,22,17.90
2015,10,13,16,23,17.80
2015,10,13,16,24,17.80
2015,10,13,16,25,17.80
2015,10,13,16,26,17.70
2015,10,13,16,27,17.70
2015,10,13,16,28,17.70
2015,10,13,16,29,17.70
2015,10,13,16,30,17.70
2015,10,13,16,31,17.70
2015,10,13,16,32,17.70
2015,10,13,16,33,17.70
2015,10,13,16,34,17.70
2015,10,13,16,35,17.70
2015,10,13,16,36,17.70
2015,10,13,16,37,17.70
2015,10,13,16,38,17.70
2015,10,13,16,39,17.70
2015,10,13,16,40,17.70
2015,10,13,16,41,17.70
2015,10,13,16,42,17.70
2015,10,13,16,43,17.70
2015,10,13,16,44,17.60
2015,10,13,16,45,17.60
2015,10,13,16,46,17.60
2015,10,13,16,47,17.60
2015,10,13,16,48,17.50
2015,10,13,16,49,17.50
2015,10,13,16,50,17.50
2015,10,13,16,51,17.50
2015,10,13,16,52,17.40
2015,10,13,16,53,17.40
2015,10,13,16,54,17.40
2015,10,13,16,55,17.40
2015,10,13,16,56,17.40
2015,10,13,16,57,17.40
2015,10,13,16,58,17.40
2015,10,13,16,59,17.50
2015,10,13,17,00,17.50
2015,10,13,17,01,17.50
2015,10,13,17,02,17.40
2015,10,13,17,03,17.40
2015,10,13,17,04,17.30
2015,10,13,17,05,17.30
2015,10,13,17,06,17.30
2015,10,13,17,07,17.40
2015,10,13,17,08,17.30
2015,10,13,17,09,17.30
2015,10,13,17,10,17.40
2015,10,13,17,11,17.40
2015,10,13,17,12,17.40
2015,10,13,17,13,17.40
2015,10,13,17,14,17.30
2015,10,13,17,15,17.30
2015,10,13,17,16,17.30
2015,10,13,17,17,17.30
2015,10,13,17,18,17.30
2015,10,13,17,19,17.20
2015,10,13,17,20,17.20
2015,10,13,17,21,17.20
2015,10,13,17,22,17.20
2015,10,13,17,23,17.20
2015,10,13,17,24,17.10
2015,10,13,17,25,17.10
2015,10,13,17,26,17.10
2015,10,13,17,27,17.10
2015,10,13,17,28,17.10
2015,10,13,17,29,17.00
2015,10,13,17,30,17.00
2015,10,13,17,31,17.00
2015,10,13,17,32,17.00
2015,10,13,17,33,16.90
2015,10,13,17,34,16.90
2015,10,13,17,35,16.90
2015,10,13,17,36,16.90
2015,10,13,17,37,16.80
2015,10,13,17,38,16.80
2015,10,13,17,39,16.70
2015,10,13,17,40,16.60
2015,10,13,17,41,16.50
2015,10,13,17,42,16.40
2015,10,13,17,43,16.40
2015,10,13,17,44,16.30
2015,10,13,17,45,16.20
2015,10,13,17,46,16.10